When you browse on this site, cookies collect data to enhance your experience and personalize the content and advertising you see.
Visit our Privacy Policy to learn more. By continuing to use the site, you agree to this use of cookies and data.
  • In Hungary
  • List of Countries
  • For 7 days
  • Water Temperature
  • Weather Map
  • News
  • Weather Widgets
  • user-avatar
    Login

    Hourly Weather Hutor Ilinskiy

    Today, 18 October, Friday

    Time Temperature Precipitation Wind Pressure Humidity
    00:00 +11°C° 0 mm 3 mps 747 mmHg 86%
    01:00 +11°C° 0 mm 3 mps 747 mmHg 89%
    02:00 +10°C° 0 mm 3 mps 747 mmHg 91%
    03:00 +10°C° 0 mm 3 mps 747 mmHg 92%
    04:00 +10°C° 0 mm 3 mps 747 mmHg 92%
    05:00 +9°C° 0 mm 3 mps 747 mmHg 92%
    06:00 +10°C° 0 mm 3 mps 747 mmHg 90%
    07:00 +10°C° 0 mm 3 mps 747 mmHg 87%
    08:00 +11°C° 0 mm 3 mps 747 mmHg 85%
    09:00 +12°C° 0 mm 3 mps 747 mmHg 80%
    10:00 +13°C° 0 mm 3 mps 747 mmHg 75%
    11:00 +16°C° 0 mm 3 mps 748 mmHg 70%
    12:00 +16°C° 0 mm 3 mps 747 mmHg 69%
    13:00 +16°C° 0 mm 3 mps 747 mmHg 68%
    14:00 +17°C° 0 mm 3 mps 747 mmHg 66%
    15:00 +15°C° 0 mm 2 mps 747 mmHg 71%
    16:00 +14°C° 0 mm 2 mps 747 mmHg 76%
    17:00 +13°C° 0 mm 1 mps 747 mmHg 81%
    18:00 +13°C° 0 mm 1 mps 748 mmHg 83%
    19:00 +12°C° 0 mm 1 mps 748 mmHg 85%
    20:00 +12°C° 0 mm 1 mps 748 mmHg 88%
    21:00 +11°C° 0 mm 1 mps 748 mmHg 89%
    22:00 +10°C° 0 mm 0 mps 748 mmHg 89%
    23:00 +10°C° 0 mm 0 mps 748 mmHg 90%

    Tomorrow, 19 October, Saturday

    Time Temperature Precipitation Wind Pressure Humidity
    00:00 +10°C° 0 mm 0 mps 749 mmHg 90%
    01:00 +9°C° 0 mm 0 mps 749 mmHg 90%
    02:00 +9°C° 0 mm 0 mps 749 mmHg 91%
    03:00 +9°C° 0 mm 0 mps 749 mmHg 91%
    04:00 +9°C° 0 mm 0 mps 749 mmHg 91%
    05:00 +10°C° 0 mm 1 mps 749 mmHg 91%
    06:00 +10°C° 0 mm 1 mps 749 mmHg 90%
    07:00 +11°C° 0 mm 1 mps 750 mmHg 88%
    08:00 +12°C° 0 mm 1 mps 750 mmHg 87%
    09:00 +13°C° 0 mm 1 mps 750 mmHg 82%
    10:00 +14°C° 0 mm 2 mps 750 mmHg 77%
    11:00 +15°C° 0 mm 2 mps 750 mmHg 72%
    12:00 +16°C° 0 mm 2 mps 750 mmHg 70%
    13:00 +16°C° 0 mm 2 mps 750 mmHg 68%
    14:00 +17°C° 0 mm 2 mps 750 mmHg 66%
    15:00 +15°C° 0 mm 2 mps 750 mmHg 71%
    16:00 +14°C° 0 mm 2 mps 750 mmHg 76%
    17:00 +13°C° 0 mm 2 mps 750 mmHg 81%
    18:00 +13°C° 0 mm 2 mps 750 mmHg 82%
    19:00 +13°C° 0 mm 2 mps 750 mmHg 84%
    20:00 +12°C° 0 mm 2 mps 750 mmHg 85%
    21:00 +12°C° 0 mm 2 mps 750 mmHg 86%
    22:00 +10°C° 0 mm 2 mps 750 mmHg 87%
    23:00 +10°C° 0 mm 2 mps 750 mmHg 88%

    Day after tomorrow, 20 October, Sunday

    Time Temperature Precipitation Wind Pressure Humidity
    00:00 +10°C° 0 mm 2 mps 750 mmHg 89%
    01:00 +10°C° 0 mm 2 mps 751 mmHg 89%
    02:00 +9°C° 0 mm 2 mps 751 mmHg 89%
    03:00 +9°C° 0 mm 2 mps 751 mmHg 89%
    04:00 +9°C° 0 mm 2 mps 751 mmHg 89%
    05:00 +9°C° 0 mm 2 mps 751 mmHg 90%
    06:00 +9°C° 0 mm 2 mps 751 mmHg 87%
    07:00 +10°C° 0 mm 2 mps 751 mmHg 85%
    08:00 +11°C° 0 mm 3 mps 751 mmHg 82%
    09:00 +12°C° 0 mm 3 mps 751 mmHg 78%
    10:00 +14°C° 0 mm 3 mps 751 mmHg 74%
    11:00 +16°C° 0 mm 3 mps 751 mmHg 69%
    12:00 +16°C° 0 mm 3 mps 751 mmHg 69%
    13:00 +17°C° 0 mm 3 mps 751 mmHg 68%
    14:00 +17°C° 0 mm 3 mps 750 mmHg 68%
    15:00 +16°C° 0 mm 3 mps 750 mmHg 72%
    16:00 +14°C° 0 mm 3 mps 750 mmHg 77%
    17:00 +13°C° 0 mm 3 mps 750 mmHg 81%
    18:00 +13°C° 0 mm 3 mps 750 mmHg 82%
    19:00 +13°C° 0 mm 3 mps 750 mmHg 83%
    20:00 +13°C° 0 mm 3 mps 751 mmHg 83%
    21:00 +12°C° 0 mm 3 mps 751 mmHg 83%
    22:00 +12°C° 0 mm 3 mps 751 mmHg 83%
    23:00 +12°C° 0 mm 3 mps 750 mmHg 84%

    21 October, Monday

    Time Temperature Precipitation Wind Pressure Humidity
    00:00 +12°C° 0 mm 3 mps 750 mmHg 84%
    01:00 +11°C° 0 mm 3 mps 750 mmHg 84%
    02:00 +11°C° 0 mm 3 mps 750 mmHg 84%
    03:00 +10°C° 0 mm 3 mps 750 mmHg 84%
    04:00 +10°C° 0 mm 3 mps 750 mmHg 84%
    05:00 +10°C° 0 mm 3 mps 750 mmHg 84%
    06:00 +10°C° 0 mm 3 mps 750 mmHg 81%
    07:00 +11°C° 0 mm 3 mps 750 mmHg 78%
    08:00 +12°C° 0 mm 4 mps 750 mmHg 75%
    09:00 +13°C° 0 mm 4 mps 750 mmHg 71%
    10:00 +14°C° 0 mm 4 mps 750 mmHg 66%
    11:00 +17°C° 0 mm 4 mps 750 mmHg 62%
    12:00 +17°C° 0 mm 4 mps 750 mmHg 61%
    13:00 +18°C° 0 mm 4 mps 750 mmHg 60%
    14:00 +18°C° 0 mm 4 mps 750 mmHg 60%
    15:00 +17°C° 0 mm 4 mps 750 mmHg 65%
    16:00 +16°C° 0 mm 3 mps 749 mmHg 70%
    17:00 +14°C° 0 mm 3 mps 749 mmHg 75%
    18:00 +13°C° 0 mm 3 mps 749 mmHg 77%
    19:00 +13°C° 0 mm 3 mps 749 mmHg 78%
    20:00 +12°C° 0 mm 3 mps 749 mmHg 79%
    21:00 +12°C° 0 mm 3 mps 749 mmHg 80%
    22:00 +12°C° 0 mm 3 mps 749 mmHg 81%
    23:00 +12°C° 0 mm 3 mps 749 mmHg 81%

    22 October, Tuesday

    Time Temperature Precipitation Wind Pressure Humidity
    00:00 +12°C° 0 mm 4 mps 749 mmHg 81%
    01:00 +12°C° 0 mm 4 mps 748 mmHg 81%
    02:00 +11°C° 0 mm 4 mps 748 mmHg 80%
    03:00 +10°C° 0 mm 5 mps 748 mmHg 79%
    04:00 +10°C° 0 mm 5 mps 747 mmHg 78%
    05:00 +10°C° 0 mm 5 mps 747 mmHg 77%
    06:00 +12°C° 0 mm 5 mps 747 mmHg 75%
    07:00 +11°C° 0 mm 6 mps 746 mmHg 74%
    08:00 +11°C° 0 mm 6 mps 746 mmHg 72%
    09:00 +13°C° 0 mm 6 mps 746 mmHg 69%
    10:00 +14°C° 0 mm 6 mps 745 mmHg 65%
    11:00 +15°C° 0 mm 7 mps 745 mmHg 62%
    12:00 +16°C° 0 mm 6 mps 745 mmHg 63%
    13:00 +16°C° 0 mm 6 mps 745 mmHg 65%
    14:00 +16°C° 0 mm 6 mps 745 mmHg 66%
    15:00 +15°C° 0 mm 5 mps 745 mmHg 71%
    16:00 +14°C° 0 mm 4 mps 745 mmHg 76%
    17:00 +14°C° 0 mm 4 mps 745 mmHg 81%
    18:00 +13°C° 0 mm 3 mps 745 mmHg 84%
    19:00 +12°C° 0 mm 3 mps 745 mmHg 87%
    20:00 +12°C° 0 mm 3 mps 746 mmHg 91%
    21:00 +12°C° 0 mm 3 mps 746 mmHg 88%
    22:00 +12°C° 0 mm 3 mps 746 mmHg 85%
    23:00 +12°C° 0 mm 3 mps 746 mmHg 82%

    23 October, Wednesday

    Time Temperature Precipitation Wind Pressure Humidity
    00:00 +11°C° 0 mm 3 mps 747 mmHg 83%
    01:00 +11°C° 0 mm 3 mps 747 mmHg 83%
    02:00 +11°C° 0 mm 3 mps 748 mmHg 84%
    03:00 +11°C° 0.1 mm 3 mps 748 mmHg 87%
    04:00 +10°C° 0.1 mm 3 mps 748 mmHg 90%
    05:00 +10°C° 0.1 mm 3 mps 749 mmHg 92%
    06:00 +10°C° 0 mm 3 mps 749 mmHg 91%
    07:00 +10°C° 0 mm 3 mps 750 mmHg 90%
    08:00 +10°C° 0 mm 3 mps 750 mmHg 89%
    09:00 +11°C° 0 mm 3 mps 751 mmHg 82%
    10:00 +12°C° 0 mm 2 mps 751 mmHg 76%
    11:00 +13°C° 0 mm 2 mps 751 mmHg 69%
    12:00 +13°C° 0 mm 2 mps 751 mmHg 67%
    13:00 +13°C° 0 mm 2 mps 751 mmHg 64%
    14:00 +13°C° 0 mm 2 mps 751 mmHg 62%
    15:00 +13°C° 0 mm 1 mps 751 mmHg 65%
    16:00 +12°C° 0 mm 1 mps 751 mmHg 67%
    17:00 +11°C° 0 mm 1 mps 751 mmHg 70%
    18:00 +11°C° 0 mm 1 mps 752 mmHg 70%
    19:00 +11°C° 0 mm 1 mps 752 mmHg 69%
    20:00 +11°C° 0 mm 1 mps 752 mmHg 69%
    21:00 +11°C° 0 mm 1 mps 752 mmHg 70%
    22:00 +10°C° 0 mm 1 mps 752 mmHg 71%
    23:00 +10°C° 0 mm 1 mps 752 mmHg 73%
    Show more